Myrtle Beach, SC

5:19 AM EDT on June 29, 2017 (GMT -0400)
Myrtle Beach International

Weather History for KMYR - May, 2014

Change the Weather History Date:

Monday, May 5, 2014

  Actual Average Record
Temperature  
Mean Temperature 72 °F -  
Max Temperature 80 °F 74 °F 91 °F (1952)
Min Temperature 64 °F 57 °F 45 °F (1997)
Cooling Degree Days 7    
Growing Degree Days 22 (Base 50)    
Moisture  
Dew Point 54 °F    
Average Humidity 62    
Maximum Humidity 94    
Minimum Humidity 39    
Precipitation  
Precipitation 0.00 in - - ()
Sea Level Pressure  
Sea Level Pressure 29.94 in    
Wind  
Wind Speed 11 mph (SW)    
Max Wind Speed 15 mph    
Max Gust Speed 17 mph    
Visibility 10 miles    
Events      
Averages and records for this station are not official NWS values.
T = Trace of Precipitation, MM = Missing Value Source: NWS Daily Summary

Daily Weather History Graph

Daily Weather History Graph

Search for Another Location

Airport or City:

Trip Planner

Search our weather history database for the weather conditions in past years. The results will help you decide how hot, cold, wet, or windy it might be!

Date:

Astronomy

May. 05, 2014 Rise Set
Actual Time 6:23 AM EDT 8:02 PM EDT
Civil Twilight 5:56 AM EDT 8:28 PM EDT
Nautical Twilight 5:24 AM EDT 9:01 PM EDT
Astronomical Twilight 4:50 AM EDT 9:35 PM EDT
Moon 11:40 AM EDT (5/5) 12:45 AM EDT (5/5)
Length of Visible Light 14h 32m
Length of Day
13h 38m
Waxing Crescent, 36% of the Moon is Illuminated
May 5
Waxing Crescent
May 6
First Quarter
May 14
Full
May 21
Last Quarter
May 28
New

Hourly Weather History & Observations

Time (EDT) Temp. Heat Index Dew Point Humidity Pressure Visibility Wind Dir Wind Speed Gust Speed Precip Events Conditions
12:15 AM 68.0 °F - 46.4 °F 46% 29.96 in 10.0 mi WSW 9.2 mph - N/A   Clear
12:35 AM 66.2 °F - 46.4 °F 49% 29.95 in 10.0 mi WSW 11.5 mph - N/A   Clear
12:55 AM 68.0 °F - 46.4 °F 46% 29.95 in 10.0 mi WSW 11.5 mph 17.3 mph N/A   Clear
1:15 AM 68.0 °F - 46.4 °F 46% 29.94 in 10.0 mi WSW 10.4 mph - N/A   Clear
1:35 AM 68.0 °F - 46.4 °F 46% 29.94 in 10.0 mi WSW 12.7 mph 17.3 mph N/A   Clear
1:55 AM 68.0 °F - 48.2 °F 49% 29.94 in 10.0 mi WSW 10.4 mph - N/A   Clear
2:15 AM 66.2 °F - 48.2 °F 52% 29.93 in 10.0 mi WSW 11.5 mph 17.3 mph N/A   Clear
2:35 AM 66.2 °F - 48.2 °F 52% 29.93 in 10.0 mi WSW 10.4 mph - N/A   Clear
2:55 AM 66.2 °F - 48.2 °F 52% 29.93 in 10.0 mi WSW 10.4 mph - N/A   Clear
3:15 AM 66.2 °F - 48.2 °F 52% 29.93 in 10.0 mi WSW 10.4 mph 16.1 mph N/A   Clear
3:35 AM 66.2 °F - 48.2 °F 52% 29.93 in 10.0 mi West 12.7 mph - N/A   Clear
3:55 AM 66.2 °F - 48.2 °F 52% 29.93 in 10.0 mi West 8.1 mph - N/A   Clear
4:15 AM 66.2 °F - 48.2 °F 52% 29.93 in 10.0 mi West 9.2 mph - N/A   Clear
4:35 AM 64.4 °F - 50.0 °F 59% 29.94 in 10.0 mi West 10.4 mph - N/A   Clear
4:55 AM 64.4 °F - 50.0 °F 59% 29.94 in 10.0 mi West 9.2 mph - N/A   Clear
5:15 AM 64.4 °F - 50.0 °F 59% 29.94 in 10.0 mi West 10.4 mph - N/A   Clear
5:35 AM 64.4 °F - 51.8 °F 64% 29.94 in 10.0 mi West 10.4 mph - N/A   Clear
5:45 AM 64.4 °F - 51.8 °F 64% 29.94 in 10.0 mi West 9.2 mph - N/A   Clear
5:55 AM 64.4 °F - 51.8 °F 64% 29.94 in 10.0 mi West 11.5 mph - N/A   Clear
6:45 AM 64.4 °F - 51.8 °F 64% 29.96 in 10.0 mi West 10.4 mph - N/A   Clear
7:50 AM 66.2 °F - 53.6 °F 64% 29.97 in 10.0 mi West 9.2 mph - N/A   Clear
8:47 AM 71.6 °F - 53.6 °F 53% 29.98 in 10.0 mi NW 9.2 mph - N/A   Clear
9:50 AM 75.2 °F - 53.6 °F 47% 29.98 in 10.0 mi NNW 9.2 mph - N/A   Clear
10:45 AM 78.8 °F - 51.8 °F 39% 29.97 in 10.0 mi North 10.4 mph - N/A   Clear
11:20 AM 80.6 °F 80.3 °F 53.6 °F 39% 29.98 in 10.0 mi SSE 8.1 mph - N/A   Clear
11:45 AM 78.8 °F - 55.4 °F 44% 29.98 in 10.0 mi SE 11.5 mph - N/A   Clear
12:47 PM 77.0 °F - 55.4 °F 47% 29.98 in 10.0 mi ESE 15.0 mph - N/A   Clear
1:47 PM 71.6 °F - 60.8 °F 69% 29.97 in 10.0 mi ESE 15.0 mph - N/A   Clear
2:45 PM 73.4 °F - 60.8 °F 65% 29.96 in 10.0 mi SE 15.0 mph - N/A   Clear
3:48 PM 71.6 °F - 60.8 °F 69% 29.93 in 10.0 mi ESE 13.8 mph - N/A   Clear
4:49 PM 71.6 °F - 60.8 °F 69% 29.92 in 10.0 mi ESE 11.5 mph - N/A   Clear
5:45 PM 71.6 °F - 62.6 °F 73% 29.92 in 10.0 mi SE 11.5 mph - N/A   Clear
6:45 PM 71.6 °F - 62.6 °F 73% 29.92 in 110.0 mi SE 12.7 mph - N/A   Clear
7:45 PM 68.0 °F - 64.4 °F 88% 29.92 in 10.0 mi ESE 11.5 mph - N/A   Clear
8:45 PM 66.2 °F - 64.4 °F 94% 29.92 in 10.0 mi SE 11.5 mph - N/A   Clear
9:50 PM 66.2 °F - 64.4 °F 94% 29.91 in 10.0 mi ESE 11.5 mph - N/A   Clear
10:45 PM 66.2 °F - 64.4 °F 94% 29.91 in 10.0 mi SSE 9.2 mph - N/A   Clear
10:55 PM 66.2 °F - 64.4 °F 94% 29.90 in 10.0 mi SSE 6.9 mph - N/A   Clear
11:15 PM 66.2 °F - 62.6 °F 88% 29.89 in 10.0 mi South 10.4 mph - N/A   Clear
11:35 PM 68.0 °F - 62.6 °F 83% 29.89 in 10.0 mi South 9.2 mph - N/A   Clear
11:55 PM 69.8 °F - 64.4 °F 83% 29.88 in 10.0 mi South 10.4 mph - N/A   Clear